Location: Austin
(30.3000°N, 97.7500°W)
Time: 01:52:50
(UTC-06:00)

COSMO-SKYMED 1 - Pass Details

Date: 20 November 2023
Orbit: 621 x 623 km, 97.9° (Epoch: 04 December)

Event Time Altitude Azimuth Distance (km) Brightness Sun altitude
Rises 18:17:06 0° 15° (NNE) 2,902 5.7 -9.9°
Reaches altitude 10° 18:19:19 10° 19° (NNE) 1,992 4.8 -10.4°
Maximum altitude 18:23:37 64° 101° (E) 691 2.5 -11.3°
Drops below altitude 10° 18:27:53 10° 183° (S) 1,981 5.4 -12.2°
Sets 18:30:05 0° 186° (S) 2,883 6.3 -12.6°
